CZ-6A DEB

Satellite information

Favourite Embed

Satellite Type and Status

DEBRISIN ORBIT

Key statistics

Satellite CZ-6A DEB at a glance.

Uptime

909

Days in orbit

Revolutions

≈ 14.6

Per day

Orbit

SSO

Sun Synchronous Orbit

Inclination

98.5

Latest

Satellite identification and parameters

Extended collection of information and parameters for CZ-6A DEB.

Object identification

Identified? True

Debris? True

Object name: CZ-6A DEB

International designator: 2022-151RT

Object number (NORAD): 54930

Object ID (CCSDS): 54930

Country: PEOPLES REPUBLIC OF CHINA (PRC)

Current information (Y/N): Y

RCS size: SMALL

Orbital parameters

Period: 98.32 minutes

Inclination: 98.4608 deg

SMA: 7056.472 km

Apoapsis: 754.298 km

Periapsis: 602.376 km

RAAN: 156.349 deg

Eccentricy: 0.0107647

Argument of periapsis: 49.4486 deg

Mean anomaly: 311.6028 deg

Mean motion: 14.64607665 rev/day

Mean motion (dot): 0.00012379 rev/day2

B* drag term: 0.002147 1/REarth

Two-line elements (TLE)

Creation date: May 8, 2025, 3:01 a.m.

Reference frame: TEME

Reference center: EARTH

Epoch: May 7, 2025, 1:36 a.m. UTC

TLE line 0: 0 CZ-6A DEB

TLE line 1: 1 54930U 22151RT 25127.06689773 .00012379 00000-0 21470-2 0 9993

TLE line 2: 2 54930 98.4608 156.3490 0107647 49.4486 311.6028 14.64607665131029

Live tracking on map

Real-time ground track for satellite CZ-6A DEB.

In-orbit conjunctions

A list of the most updated potential collisions computed for object CZ-6A DEB.

Target Orbit TCA Probability of collision Miss distance Type
IRIDIUM 29 LEO 2025-01-09 08:44:39 0.001028356 168.0 (m) PAYLOAD
COSMOS 2251 DEB LEO 2024-11-17 03:13:03 0.0001886486 221.0 (m) DEBRIS
FENGYUN 1C DEB SSO 2024-11-15 11:09:51 0.0001774546 183.0 (m) DEBRIS

Associated space launch

Chinese satellite reported for atmospheric/ocean/environmental/spatial parameter research purposes, details TBD.

CZ-6A DEB was lifted into orbit during the mission ‘Long March 6A | Yunhai 3’, on board a Long March 6A space rocket.

The launch took place on Nov. 11, 2022, 10:52 p.m. from Launch Complex 9A.

For more information about the launch, click the button.

Launch to space Long March 6A | Yunhai 3
Long March 6A | Yunhai 3

Agency: N/A

Status: Launch Successful

Launch date: Nov. 11, 2022, 10:52 p.m. UTC

Rocket: Long March 6A

Launch pad: Launch Complex 9A

Location: Taiyuan Satellite Launch Center, People's Republic of China

...

Latest news about this satellite

There are no fresh news available about this satellite. Check back as we update our databases every day.


Newsletter sign-up

Weekly statistics, charts and insights to help you stay on top of the space industry.